Lid_Strength_Index
2 3 4 3 3 3 2 2 2 2 1 0 -1 -0 -0 0 1 1 -1 -1 -2 -2 -1 -2 -2 -2 -2 -2 -2 -2 -1 -1 -1 -1 -1 -1 -1 -1 -1 -1 -1 -1 -2
5 6 6 5 5 5 4 3 3 3 2 1 2 1 1 -1 -1 0 0 0 -2 -2 -1 -1 -2 -2 -2 -2 -2 -2 -2 -1 -1 -1 -1 -1 -1 -1 -1 -1 -1 -1 -1
6 6 7 7 6 5 5 5 5 4 3 4 4 3 2 0 -0 -0 -1 -0 -0 -1 -1 -1 -2 -2 -2 -2 -2 -2 -2 -1 -1 -1 -1 -1 -1 -1 -1 -1 -1 -1 -1
6 7 7 7 6 6 7 7 6 7 5 6 6 5 4 1 2 1 -1 -1 -1 -1 -1 -1 -2 -1 -1 -1 -2 -2 -2 -1 -1 -1 -1 -1 -1 -1 -1 -1 -1 -1 -1
7 8 9 8 8 9 9 9 8 8 7 8 8 6 4 3 3 -0 -1 -1 -1 -1 -1 -1 -2 -1 -1 -1 -2 -2 -1 -1 -1 -1 -1 -1 -1 -1 -1 -1 -1 -1 -1
8 8 9 9 9 10 10 10 10 8 7 8 8 5 4 3 0 1 1 0 -1 -0 -0 -1 -0 -0 -1 -1 -1 -1 -1 -1 -1 -1 -1 -1 -1 -1 -1 -1 -1 -1 -1
9 10 11 10 10 11 11 10 10 9 8 7 6 5 2 4 4 4 2 4 4 4 4 2 1 0 0 0 -0 -1 -2 -2 -1 -1 -1 -1 -1 -1 -1 -1 -1 -1 -1
10 10 9 10 11 11 11 11 11 9 9 8 9 5 6 4 6 4 2 4 7 7 7 7 6 6 5 2 1 -1 -1 -2 -2 -1 -1 -1 -1 -1 -1 -1 -2 -2 -2
10 10 10 10 10 9 10 10 10 10 11 9 8 8 9 9 8 3 2 4 6 6 6 8 8 6 5 4 4 2 -0 -1 -2 -2 -1 -1 -1 -1 -1 -1 -2 -2 -2
9 9 9 9 9 10 10 9 10 10 10 11 10 9 8 9 10 10 5 5 8 8 7 6 6 5 6 6 4 3 2 1 -1 -1 -1 -1 -1 -1 -1 -1 -2 -2 -1
9 9 9 9 10 10 10 10 10 11 11 11 11 11 10 9 10 11 12 10 9 8 7 8 7 6 4 3 5 5 5 3 3 2 -0 -1 -1 -1 -1 -1 -1 -1 -1
10 9 9 10 10 10 10 10 11 11 11 11 11 11 11 11 12 12 13 12 12 9 9 8 7 6 6 5 4 4 7 7 6 4 4 3 0 -1 -1 0 -0 -1 -1
10 10 10 10 10 10 10 11 10 10 11 11 11 11 11 11 10 11 12 12 13 10 9 8 7 7 6 7 7 5 4 5 8 7 6 5 3 2 -1 -0 0 -0 -1
10 10 10 10 10 10 10 11 11 10 11 11 11 11 11 11 10 11 12 12 13 12 10 10 8 7 7 7 6 5 6 5 5 5 7 6 5 3 1 0 1 1 0
9 9 10 10 10 10 10 10 11 10 10 11 11 11 11 10 10 10 10 11 12 14 13 10 10 7 7 7 6 6 6 5 5 5 5 4 3 5 4 1 1 2 2
10 10 10 10 10 10 10 10 11 10 11 11 11 11 11 11 10 10 10 10 10 12 14 11 10 8 7 7 6 6 6 5 5 5 5 5 4 5 5 3 1 2 3
10 10 9 9 9 10 10 10 10 10 11 11 11 11 12 11 10 10 10 10 10 10 12 11 9 8 8 8 7 7 6 6 6 5 5 5 4 4 5 4 3 2 3
10 9 8 9 9 9 10 10 10 10 11 12 12 12 12 11 11 10 10 10 10 9 10 11 10 9 9 7 8 8 7 6 5 5 5 5 4 4 4 5 5 3 4
9 9 9 9 10 10 10 10 10 10 11 11 12 12 12 11 11 10 10 9 8 8 8 10 10 9 9 7 8 7 7 7 6 4 4 4 4 4 4 3 5 5 5
10 9 9 10 10 10 10 10 10 10 10 11 10 10 10 10 10 9 8 8 8 9 8 9 10 10 9 8 8 9 8 7 7 6 5 4 4 4 3 2 2 3 6
9 9 9 9 10 10 9 7 8 8 9 9 9 9 9 7 6 6 7 7 7 7 8 8 9 9 9 8 9 8 9 7 6 5 6 5 5 3 2 1 -0 1 5
9 9 8 8 8 8 7 6 5 7 8 9 9 9 8 7 7 6 6 5 5 7 8 8 8 9 9 8 7 7 7 8 9 3 3 5 3 3 1 -0 1 2 6
7 7 7 7 7 7 6 5 5 6 7 8 8 8 8 7 6 7 6 5 5 5 5 6 7 7 7 6 7 7 8 8 8 5 4 5 3 5 0 -0 2 3 6
7 6 6 6 6 6 5 5 4 5 7 7 8 8 8 8 7 6 6 6 7 6 6 5 6 6 6 5 6 6 7 7 7 6 4 6 3 3 1 1 3 4 7
6 6 6 6 6 5 5 5 5 6 7 7 7 8 7 7 6 5 6 7 7 7 5 5 5 5 5 5 5 7 9 8 8 6 4 5 5 3 3 3 3 5 7
6 5 5 5 5 4 5 5 5 6 7 8 8 7 7 6 5 5 6 6 8 7 7 6 6 5 5 5 6 7 8 9 7 7 4 4 4 3 5 5 4 5 6